International Skating Union - Official Site

Essent ISU World Cup Heerenveen
December 2-4, 2011

Draw | Lap Times | Index | World Cup

Referee: Daniel  CABELDUC  (SWE)
Starter: Bernhard  MAYER  (GER)
StartTime: EndTime: Air Temp: Ice Temp: Humidity:
16:15 16:40 17.5 ℃ -13.4 ℃ 28
Result Team Pursuit Men
Rankings as of Oct 12 2012 5:02PM
Rank: No.: Team: Nation: Time: Behind: Points:
Total 11
1 1 Netherlands (78) Sven KRAMER (82) Wouter OLDE HEUVEL (73) Jan BLOKHUIJSEN NED NED 3:42.350.5 - 17.56 - (17.5)
1.0 - 30.61 - (13.0)
1.5 - 43.81 - (13.2)
2.0 - 56.96 - (13.1)
2.5 - 1:10.29 - (13.3)
3.0 - 1:24.02 - (13.7)
3.5 - 1:37.59 - (13.5)
4.0 - 1:51.17 - (13.5)
4.5 - 2:05.05 - (13.8)
5.0 - 2:18.54 - (13.4)
5.5 - 2:32.03 - (13.4)
6.0 - 2:45.79 - (13.7)
6.5 - 2:59.88 - (14.0)
7.0 - 3:14.14 - (14.2)
7.5 - 3:28.36 - (14.2)
8.0 - 3:42.35 - (13.9)
100
2 4 Korea (69) Seung-Hoon LEE (64) Byung-Wook KO (62) Hyung-Joon JOO KOR KOR 3:43.820.5 - 18.10 - (18.1)
1.0 - 31.35 - (13.2)
1.5 - 44.88 - (13.5)
2.0 - 58.17 - (13.2)
2.5 - 1:11.55 - (13.3)
3.0 - 1:25.05 - (13.5)
3.5 - 1:38.77 - (13.7)
4.0 - 1:52.21 - (13.4)
4.5 - 2:05.85 - (13.6)
5.0 - 2:19.78 - (13.9)
5.5 - 2:34.04 - (14.2)
6.0 - 2:48.29 - (14.2)
6.5 - 3:02.67 - (14.3)
7.0 - 3:16.60 - (13.9)
7.5 - 3:30.23 - (13.6)
8.0 - 3:43.82 - (13.5)
1.47 80
3 3 Germany (33) Patrick BECKERT (32) Alexej BAUMGÄRTNER (40) Marco WEBER GER GER 3:45.280.5 - 18.05 - (18.0)
1.0 - 31.57 - (13.5)
1.5 - 45.01 - (13.4)
2.0 - 58.53 - (13.5)
2.5 - 1:12.04 - (13.5)
3.0 - 1:25.89 - (13.8)
3.5 - 1:39.60 - (13.7)
4.0 - 1:53.46 - (13.8)
4.5 - 2:07.44 - (13.9)
5.0 - 2:21.64 - (14.2)
5.5 - 2:35.60 - (13.9)
6.0 - 2:49.72 - (14.1)
6.5 - 3:03.91 - (14.1)
7.0 - 3:17.67 - (13.7)
7.5 - 3:31.43 - (13.7)
8.0 - 3:45.28 - (13.8)
2.93 70
4 8 Poland (98) Zbigniew BRODKA (101) Konrad NIEDZWIEDZKI (100) Roland CIESLAK POL POL 3:46.390.5 - 17.74 - (17.7)
1.0 - 31.11 - (13.3)
1.5 - 44.57 - (13.4)
2.0 - 57.95 - (13.3)
2.5 - 1:11.36 - (13.4)
3.0 - 1:24.98 - (13.6)
3.5 - 1:38.63 - (13.6)
4.0 - 1:52.54 - (13.9)
4.5 - 2:06.72 - (14.1)
5.0 - 2:20.79 - (14.0)
5.5 - 2:34.86 - (14.0)
6.0 - 2:49.09 - (14.2)
6.5 - 3:03.22 - (14.1)
7.0 - 3:17.58 - (14.3)
7.5 - 3:31.89 - (14.3)
8.0 - 3:46.39 - (14.5)
4.04 60
5 9 Canada (14) Denny MORRISON (17) Stefan WAPLES (6) Jordan BELCHOS CAN CAN 3:46.870.5 - 17.98 - (17.9)
1.0 - 31.03 - (13.0)
1.5 - 44.06 - (13.0)
2.0 - 57.37 - (13.3)
2.5 - 1:11.01 - (13.6)
3.0 - 1:24.85 - (13.8)
3.5 - 1:38.92 - (14.0)
4.0 - 1:53.10 - (14.1)
4.5 - 2:07.30 - (14.2)
5.0 - 2:21.19 - (13.8)
5.5 - 2:35.26 - (14.0)
6.0 - 2:49.39 - (14.1)
6.5 - 3:03.75 - (14.3)
7.0 - 3:17.96 - (14.2)
7.5 - 3:32.35 - (14.3)
8.0 - 3:46.87 - (14.5)
4.52 50
6 10 Italy (45) Luca STEFANI (44) Mirko Giacomo NENZI (41) Matteo ANESI ITA ITA 3:48.010.5 - 17.65 - (17.6)
1.0 - 31.74 - (14.0)
1.5 - 45.73 - (13.9)
2.0 - 59.92 - (14.1)
2.5 - 1:13.88 - (13.9)
3.0 - 1:27.88 - (14.0)
3.5 - 1:41.84 - (13.9)
4.0 - 1:56.02 - (14.1)
4.5 - 2:10.07 - (14.0)
5.0 - 2:24.23 - (14.1)
5.5 - 2:38.20 - (13.9)
6.0 - 2:52.06 - (13.8)
6.5 - 3:06.01 - (13.9)
7.0 - 3:20.03 - (14.0)
7.5 - 3:34.09 - (14.0)
8.0 - 3:48.01 - (13.9)
5.66 45
7 13 Japan (47) Hiroki HIRAKO (50) Teppei MORI (54) Norimasa ZAIKE JPN JPN 3:52.860.5 - 18.43 - (18.4)
1.0 - 32.91 - (14.4)
1.5 - 47.32 - (14.4)
2.0 - 1:01.37 - (14.0)
2.5 - 1:15.36 - (13.9)
3.0 - 1:29.11 - (13.7)
3.5 - 1:43.06 - (13.9)
4.0 - 1:57.18 - (14.1)
4.5 - 2:11.67 - (14.4)
5.0 - 2:26.10 - (14.4)
5.5 - 2:40.50 - (14.4)
6.0 - 2:54.58 - (14.0)
6.5 - 3:08.79 - (14.2)
7.0 - 3:23.18 - (14.3)
7.5 - 3:37.97 - (14.7)
8.0 - 3:52.86 - (14.9)
10.51 40
8 2 USA (119) Jonathan KUCK (117) Shani DAVIS (122) Patrick MEEK USA USA 3:53.380.5 - 18.38 - (18.3)
1.0 - 32.30 - (13.9)
1.5 - 45.88 - (13.5)
2.0 - 59.58 - (13.7)
2.5 - 1:13.64 - (14.0)
3.0 - 1:27.82 - (14.1)
3.5 - 1:42.23 - (14.4)
4.0 - 1:56.52 - (14.2)
4.5 - 2:10.60 - (14.0)
5.0 - 2:24.71 - (14.1)
5.5 - 2:39.15 - (14.4)
6.0 - 2:53.83 - (14.6)
6.5 - 3:08.61 - (14.7)
7.0 - 3:23.40 - (14.7)
7.5 - 3:38.49 - (15.0)
8.0 - 3:53.38 - (14.8)
11.03 36
9 12 Czech Republic (23) Pavel KULMA (22) Zdenek HASELBERGER (24) Milan SÁBLIK CZE CZE 3:59.260.5 - 19.10 - (19.1)
1.0 - 33.65 - (14.5)
1.5 - 48.49 - (14.8)
2.0 - 1:02.98 - (14.4)
2.5 - 1:17.44 - (14.4)
3.0 - 1:31.84 - (14.4)
3.5 - 1:46.35 - (14.5)
4.0 - 2:01.31 - (14.9)
4.5 - 2:15.99 - (14.6)
5.0 - 2:30.64 - (14.6)
5.5 - 2:45.29 - (14.6)
6.0 - 3:00.40 - (15.1)
6.5 - 3:15.22 - (14.8)
7.0 - 3:30.03 - (14.8)
7.5 - 3:44.57 - (14.5)
8.0 - 3:59.26 - (14.6)
16.91 32
10 6 Norway (89) Håvard BØKKO (96) Sverre LUNDE PEDERSEN (95) Håvard LORENTZEN NOR NOR 4:26.930.5 - 17.74 - (17.7)
1.0 - 31.29 - (13.5)
1.5 - 44.83 - (13.5)
2.0 - 58.52 - (13.6)
2.5 - 1:12.09 - (13.5)
3.0 - 1:25.60 - (13.5)
3.5 - 1:39.22 - (13.6)
4.0 - 1:52.86 - (13.6)
4.5 - 2:06.86 - (14.0)
5.0 - 2:20.85 - (13.9)
5.5 - 2:34.88 - (14.0)
6.0 - 2:48.92 - (14.0)
6.5 - 3:02.64 - (13.7)
7.0 - 3:16.31 - (13.6)
7.5 - 3:30.20 - (13.8)
8.0 - 4:26.93 - (56.7)
44.58 28
11 5 Russia (112) Ivan SKOBREV (107) Yevgeny LALENKOV (105) Pavel BAYNOV RUS RUS DNF0.5 - 17.80 - (17.8)
1.0 - 31.43 - (13.6)
1.5 - 44.94 - (13.5)
2.0 - 58.47 - (13.5)
2.5 - 1:12.20 - (13.7)
3.0 - 1:25.94 - (13.7)
3.5 - 1:39.81 - (13.8)
4.0 - 1:53.69 - (13.8)
4.5 - 2:07.74 - (14.0)
5.0 - 2:21.69 - (13.9)
0